This is the latest recevied weather packets stored in our database for station/object AE0NK. If no packets are shown the sender has not sent any weather packets the latest 10 day(s).
| Time | Temp. | Humidity | Pressure | Rain* | Wind** | Luminosity | Snow |
|---|---|---|---|---|---|---|---|
| 1777410817 | 16.11° C | 45% | 1014.2 hPa | 0 mm | - | 285 W/m² | - |
| 1777410510 | 16.11° C | 45% | 1014.2 hPa | 0 mm | - | 649 W/m² | - |
| 1777410207 | 16.67° C | 44% | 1014.2 hPa | 0 mm | - | 663 W/m² | - |
| 1777409903 | 16.67° C | 46% | 1014.4 hPa | 0 mm | - | 687 W/m² | - |
| 1777409603 | 16.67° C | 48% | 1014.6 hPa | 0 mm | - | 744 W/m² | - |
| 1777409300 | 16.11° C | 44% | 1014.6 hPa | 0 mm | - | 703 W/m² | - |
| 1777409017 | 16.11° C | 45% | 1014.6 hPa | 0 mm | - | 712 W/m² | - |
| 1777408708 | 15.56° C | 47% | 1014.6 hPa | 0 mm | - | 789 W/m² | - |
| 1777408408 | 15.56° C | 45% | 1014.8 hPa | 0 mm | - | 729 W/m² | - |
| 1777408105 | 16.11° C | 51% | 1014.6 hPa | 0 mm | - | 745 W/m² | - |
| 1777407802 | 16.11° C | 45% | 1014.7 hPa | 0 mm | - | 701 W/m² | - |
| 1777407499 | 16.11° C | 47% | 1014.7 hPa | 0 mm | - | 701 W/m² | - |
| 1777407197 | 16.11° C | 45% | 1014.6 hPa | 0 mm | - | 729 W/m² | - |
| 1777406894 | 16.11° C | 48% | 1014.5 hPa | 0 mm | - | 795 W/m² | - |
| 1777406592 | 15.56° C | 49% | 1014.6 hPa | 0 mm | - | 842 W/m² | - |
| 1777406308 | 16.11° C | 47% | 1014.8 hPa | 0 mm | - | 392 W/m² | - |
| 1777406006 | 16.67° C | 50% | 1014.7 hPa | 0 mm | - | 814 W/m² | - |
| 1777405701 | 16.11° C | 49% | 1015.3 hPa | 0 mm | - | 840 W/m² | - |
| 1777405401 | 15.56° C | 47% | 1015.1 hPa | 0 mm | - | 580 W/m² | - |
| 1777405099 | 15° C | 52% | 1015 hPa | 0 mm | - | 512 W/m² | - |
| 1777404797 | 15.56° C | 53% | 1015.1 hPa | 0 mm | - | 418 W/m² | - |
| 1777404496 | 16.11° C | 49% | 1015.2 hPa | 0 mm | - | 670 W/m² | - |
| 1777404194 | 16.11° C | 51% | 1015.3 hPa | 0 mm | - | 823 W/m² | - |
| 1777403910 | 15° C | 52% | 1015.3 hPa | 0 mm | - | 710 W/m² | - |
| 1777403610 | 15° C | 51% | 1015.5 hPa | 0 mm | - | 510 W/m² | - |
* Rain latest hour (hover to see other rain measurements)
** Current wind speed in m/s (hover to see current wind gust speed)